Location: Dernancourt
(49.9727°N, 2.6309°E)
Time: 01:07:23
(UTC+00:00)

Daily predictions for brighter satellites

Satellite Brightness Start Highest point End
(mag) Time Altitude Azimuth Time Altitude Azimuth Time Altitude Azimuth
ATLAS CENTAUR R/B 3.8 00:07:30 11° SW 00:13:08 90° NNE 00:29:08 10° ENE
Cosmos 1825 3.6 00:13:02 21° SE 00:14:39 29° E 00:17:56 10° NNE
Cosmos 1812 Rocket 4.3 00:13:27 10° NNW 00:17:34 41° W 00:19:25 27° SW
Cosmos 990 Rocket 4.0 00:13:57 10° NNW 00:19:12 85° ENE 00:22:37 22° SSE
Cosmos 1408 2.9 00:19:18 33° SSE 00:20:40 57° E 00:24:18 10° NNE
SL-16 R/B 2.4 00:19:56 20° SW 00:23:58 70° WNW 00:29:39 10° NNE
Cosmos 1656 Rocket 4.0 00:19:05 10° NNW 00:24:47 65° ENE 00:30:16 11° SE
Cosmos 405 Rocket 3.4 00:23:36 27° SE 00:25:03 41° E 00:28:33 10° NNE
Cosmos 2221 3.7 00:21:14 10° N 00:25:15 37° ENE 00:28:24 15° SE
Cosmos 2058 4.1 00:24:22 20° SE 00:26:28 32° E 00:30:08 10° NNE
USA 229 DEB 3.7 00:22:35 24° SSW 00:26:32 61° SE 00:33:18 10° NE
USA 229 3.7 00:22:43 24° SSW 00:26:39 61° SE 00:33:24 10° NE
X-37B 2.5 00:28:47 18° ESE 00:28:47 18° ESE 00:29:54 10° ESE
Cosmos 2237 Rocket 3.8 00:22:21 10° WSW 00:27:18 31° NW 00:32:17 10° NNE
Cosmos 1898 Rocket 3.5 00:27:13 10° NNW 00:32:30 88° ENE 00:36:10 20° SSE
Cosmos 1937 Rocket 3.8 00:27:27 10° NNW 00:32:47 68° ENE 00:37:19 14° SE
NOSS 8 (F) 4.0 00:34:00 43° SSW 00:34:52 74° SE 00:37:50 10° NE
Cosmos 2369 Rocket 2.2 00:29:12 10° NNW 00:34:56 76° WSW 00:38:58 20° SSE
NOSS 3-1 (C) 3.3 00:31:11 19° SW 00:35:12 86° NW 00:41:43 10° NE
YAOGAN 11 4.3 00:35:34 22° SSE 00:38:24 75° ENE 00:42:55 10° NNW
SJ 16-02 2.5 00:34:51 10° NW 00:38:35 28° W 00:40:01 23° SW
Cosmos 1356 3.3 00:37:29 38° S 00:38:40 89° E 00:42:05 10° NNE
FALCON 9 DEB 4.0 00:35:45 10° WNW 00:38:49 46° N 00:41:51 10° E
CREW DRAGON DEMO-1 DEB 3.3 00:40:05 33° ESE 00:40:05 33° ESE 00:41:47 10° E
GP-B 4.2 00:35:31 10° NNW 00:39:32 34° W 00:41:51 21° SW
NOSS 2-3 (E) 3.6 00:42:31 23° SW 00:45:09 83° NW 00:50:12 10° NE
USA 215 3.7 00:39:33 10° ENE 00:46:00 64° NNW 00:52:27 10° W
NOSS 3-1 (A) 3.3 00:42:41 24° SSW 00:46:09 72° SE 00:52:33 10° NE
Cosmos 1825 Rocket 3.9 00:45:41 26° SW 00:48:03 56° WNW 00:52:27 10° N
Cosmos 2263 4.1 00:42:53 10° NNW 00:48:37 80° WSW 00:53:06 17° SSE
ATLAS 5 CENTAUR R/B 3.4 00:48:04 13° SE 00:49:35 15° ESE 00:52:05 10° ENE
CZ-4 R/B 4.0 00:46:09 10° NNE 00:50:48 64° ESE 00:53:33 24° S
Helios 1B rocket 4.4 00:48:11 10° NE 00:51:19 21° E 00:54:08 11° SE
Cosmos 1932 4.4 00:47:44 10° NW 00:53:57 72° SW 01:00:03 10° SSE
Cosmos 1633 4.4 00:53:22 14° SE 00:55:31 23° E 00:58:22 10° NE
Meteor 2-2 Rocket 4.4 00:49:29 10° NNW 00:55:34 88° W 01:00:07 19° S
FALCON 9 DEB 3.7 00:52:55 10° WNW 00:55:58 52° N 00:58:59 10° E
CZ-3B R/B 3.6 00:45:00 10° W 00:56:39 55° N 01:00:05 10° ENE
Cosmos 1606 3.4 00:57:38 10° N 01:01:25 51° ENE 01:04:12 16° SSE
NOSS 8 (H) 4.0 01:00:24 35° SSW 01:01:32 79° SE 01:04:29 10° NE
Helios 1A 2.9 01:00:06 25° S 01:02:29 72° WSW 01:06:42 10° NNW
FALCON 9 DEB 3.8 00:59:39 10° WNW 01:02:44 51° N 01:05:48 10° E
Cosmos 468 Rocket 4.0 01:00:57 23° SSW 01:04:16 78° WNW 01:09:32 10° NNE
FALCON 9 DEB 3.6 01:03:09 10° WNW 01:06:13 55° NNE 01:09:17 10° E
SL-16 R/B 2.8 01:00:12 10° SSE 01:06:20 68° ENE 01:12:29 10° NNW
Cosmos 372 Rocket 4.1 01:02:31 10° NNW 01:07:47 77° ENE 01:13:02 10° SSE
USA 305 4.1 01:10:31 22° S 01:12:02 27° SE 01:15:39 10° E
USA 290 4.0 01:11:15 16° SE 01:12:47 23° ESE 01:15:25 10° NE
Cosmos 1953 Rocket 4.1 01:10:29 22° SW 01:12:59 47° WNW 01:17:16 10° N
Lacrosse 4 Rocket 1.9 01:09:55 10° NNW 01:14:00 58° NE 01:17:59 10° SE
Cosmos 1092 Rocket 4.4 01:11:05 15° SSE 01:16:05 58° E 01:22:06 10° NNE
Cosmos 2098 Rocket 3.3 01:15:08 20° S 01:18:53 85° E 01:23:14 10° N
Cosmos 1763 Rocket 3.7 01:15:44 20° SW 01:19:14 61° WNW 01:24:22 10° NNE
BREEZE-M R/B 3.8 01:18:11 20° S 01:19:27 24° SE 01:23:14 10° E
Resurs 1-4 Rocket 2.5 01:15:04 10° NNE 01:20:20 59° ESE 01:24:24 17° S
Cosmos 1437 Rocket 3.1 01:16:39 10° NNW 01:20:25 46° W 01:22:19 25° SSW
USA 267 4.3 01:19:19 19° SSW 01:21:47 23° SW 01:26:51 10° WNW
Cosmos 1892 4.3 01:21:02 16° WSW 01:23:14 25° WNW 01:26:29 10° NNW
SL-4 R/B 2.1 01:21:28 10° W 01:25:14 66° N 01:28:47 10° E
NOSS 2-3 (D) 4.5 01:22:26 12° WSW 01:26:16 48° NW 01:31:18 10° NE
Cosmos 1943 Rocket 3.8 01:24:03 10° WNW 01:27:28 17° W 01:29:31 14° SW
Cosmos 1842 Rocket 3.8 01:26:15 10° NNW 01:30:30 52° W 01:33:14 21° SSW
NPP 4.0 01:26:10 10° NNE 01:31:31 59° ESE 01:35:57 15° S
ADEOS II 3.2 01:27:00 10° NNE 01:31:52 37° E 01:36:42 10° SSE
NOSS 2-2 (D) 4.1 01:30:21 20° S 01:32:04 32° ESE 01:35:23 10° ENE
Lacrosse 5 rocket 2.8 01:30:44 10° NW 01:34:04 34° NNE 01:37:26 10° E
USA 306 3.7 01:32:05 21° SSW 01:34:18 37° SE 01:38:13 10° ENE
Cosmos 921 Rocket 2.9 01:32:38 21° SSW 01:35:24 79° ESE 01:39:36 10° NNE
Exosat Rocket 4.1 01:30:27 16° SW 01:35:31 58° WNW 01:40:38 10° NNE
FALCON 9 DEB 3.2 01:32:21 10° WNW 01:35:40 52° SSW 01:38:58 10° SE
Cosmos 1943 3.3 01:33:25 18° SW 01:37:43 71° WNW 01:43:24 10° NNE
CZ-2D R/B 2.1 01:33:51 10° NNE 01:39:06 80° ESE 01:43:15 16° SSW
MOZ.5/SAFIR/RUBIN 5/SL-8 4.4 01:38:05 19° SSW 01:41:05 41° W 01:45:37 10° NNW
IDEFIX/ARIANE 42P 4.2 01:41:41 10° NE 01:46:09 28° E 01:50:35 10° SSE
Cosmos 1603 4.0 01:41:52 16° SW 01:46:28 61° WNW 01:52:06 10° NNE
Cosmos 2151 3.2 01:44:56 15° S 01:48:23 64° E 01:52:33 10° NNE
Cosmos 1825 3.7 01:47:48 14° WSW 01:50:07 25° WNW 01:53:17 10° NNW
AQUA 4.0 01:46:23 10° NNE 01:51:10 70° ESE 01:55:17 14° S
Cosmos 1076 Rocket 3.5 01:49:45 18° SSW 01:52:50 68° WNW 01:57:06 10° N
Cosmos 1437 2.9 01:51:43 10° NNW 01:54:23 42° W 01:55:52 21° SSW
Cosmos 1242 Rocket 3.6 01:54:53 10° NNW 01:58:03 29° W 02:00:05 17° SW
Cosmos 540 Rocket 4.0 01:55:00 15° SW 01:59:07 51° WNW 02:04:08 10° NNE
DELTA 2 R/B (1) 4.5 01:57:41 14° SW 02:01:29 28° S 02:06:08 10° ESE
Cosmos 2221 3.9 01:59:08 10° NNW 02:02:38 24° W 02:05:13 14° SW
X-37B 1.5 02:01:04 14° WSW 02:03:17 29° S 02:06:05 10° SE
Cosmos 2058 4.3 02:00:33 13° WSW 02:03:24 26° WNW 02:06:54 10° NNW
BREEZE-M DEB (TANK) 1.1 02:03:09 10° W 02:05:45 69° S 02:08:05 10° ESE
IRS-1D 4.1 02:00:52 10° NNE 02:05:55 54° E 02:10:51 10° S
Cosmos 841 Rocket 4.0 02:03:07 14° SW 02:07:26 51° WNW 02:12:28 10° NNE
SL-16 R/B 4.4 02:05:12 10° W 02:09:09 19° NW 02:13:08 10° N
Cosmos 1553 Rocket 4.1 02:03:08 10° N 02:09:29 84° E 02:15:42 10° S
NOSS 2-2 (E) 3.1 02:08:03 16° SW 02:10:47 85° NW 02:14:44 10° NE
Cosmos 2292 Rocket 3.0 02:09:53 12° S 02:12:34 61° E 02:15:33 10° NNE
CREW DRAGON DEMO-1 DEB 2.8 02:10:39 10° W 02:13:05 57° N 02:15:30 10° ENE
FALCON 9 DEB 2.8 02:11:32 10° WNW 02:14:41 81° SSW 02:17:48 10° ESE
S3M 4.4 02:09:23 10° N 02:15:31 66° ENE 02:21:41 10° SSE
Cosmos 1782 3.0 02:12:08 10° N 02:16:10 75° E 02:20:10 10° SSE
USA 307 3.0 02:14:12 13° SW 02:17:54 64° SSE 02:22:07 10° ENE
Cosmos 2369 Rocket 4.1 02:15:20 10° WNW 02:17:59 13° W 02:20:38 10° SW
Cosmos 1271 Rocket 3.4 02:14:23 10° N 02:18:04 52° ENE 02:21:44 10° SSE
USA 281 3.4 02:12:15 10° SE 02:18:49 79° ENE 02:25:25 10° NNW
Cosmos 2026 Rocket 4.2 02:16:00 12° SSW 02:21:52 63° WNW 02:28:13 10° N
NOSS 2-2 (C) 3.1 02:21:26 13° SW 02:24:27 81° NW 02:28:20 10° NE
Aureole 3 Rocket 4.2 02:21:05 10° NW 02:24:29 28° W 02:28:38 11° SSW
CZ-4C R/B 3.4 02:22:36 10° SSE 02:26:00 65° ENE 02:29:28 10° N
Helios 1B rocket 3.1 02:22:51 10° N 02:26:46 44° WNW 02:30:26 11° SW
ERBS 3.9 02:24:39 10° S 02:27:13 23° SE 02:29:51 10° ENE
USA 215 4.3 02:22:19 10° ENE 02:28:32 48° N 02:34:45 10° WNW
Cosmos 1328 Rocket 3.8 02:25:46 10° N 02:30:09 73° E 02:34:31 10° SSE
Cosmos 1633 3.8 02:27:25 12° SW 02:30:11 27° WNW 02:33:14 10° NNW
NOSS 3-2 (A) 4.3 02:23:02 10° NW 02:30:21 76° NE 02:38:47 10° SE
SL-19 R/B 4.3 02:26:10 10° N 02:31:23 64° WNW 02:36:44 10° SSW
FALCON 9 DEB 3.0 02:28:34 10° WNW 02:31:35 48° SSW 02:34:33 10° SE
Cosmos 2298 Rocket 4.3 02:27:49 10° NNW 02:32:59 50° WSW 02:38:07 10° S
ATLAS 5 CENTAUR R/B 1.6 02:29:34 11° SW 02:33:26 74° NW 02:38:01 10° NE
USA 308 2.9 02:29:34 10° WSW 02:33:49 77° SSE 02:38:05 10° ENE
SeaSat 1 3.5 02:30:46 10° NE 02:35:24 39° ESE 02:40:00 10° S
FALCON 9 DEB 2.9 02:35:24 10° WNW 02:38:28 53° SSW 02:41:31 10° SE
FALCON 9 DEB 3.2 02:38:51 10° WNW 02:41:50 43° SSW 02:44:47 10° SE
ADEOS Rocket 3.6 02:34:51 10° S 02:41:54 52° W 02:48:18 10° NNW
Cosmos 1933 4.2 02:39:35 10° NNW 02:43:17 33° W 02:46:57 10° SSW
Cosmos 2150 Rocket 4.4 02:39:35 10° NW 02:44:29 43° WSW 02:49:26 10° S
USA 290 3.8 02:44:23 10° WSW 02:47:08 25° WNW 02:49:53 10° N
Cosmos 1833 Rocket 4.4 02:43:38 10° SSE 02:48:23 29° ESE 02:53:10 10° NE
Meteor 1-28 Rocket 3.8 02:46:51 10° SSW 02:50:25 39° W 02:54:02 10° NNW
SL-16 R/B 3.7 02:45:29 10° SW 02:50:28 25° W 02:55:27 10° NW
USA 305 3.0 02:47:22 10° WSW 02:51:38 84° NNW 02:55:55 10° ENE
Lacrosse 4 Rocket 2.9 02:49:27 10° WNW 02:52:14 18° WSW 02:55:00 10° SSW
Cosmos 1125 Rocket 3.9 02:47:24 10° NW 02:52:25 45° WSW 02:57:25 10° S
Cosmos 1151 Rocket 3.3 02:49:37 10° NNW 02:53:46 51° W 02:57:53 10° S
Meteor 1-29 4.0 02:53:49 10° N 02:56:54 31° WNW 02:59:56 10° SW
Cosmos 2266 Rocket 4.1 02:51:26 10° S 02:57:33 83° E 03:03:37 10° N
CZ-4B R/B 4.2 02:53:08 10° NNE 02:58:21 56° E 03:03:28 10° S
ARIANE 5 R/B 3.0 02:54:34 10° NNE 02:59:31 59° ESE 03:04:27 10° S
Resurs 1-4 Rocket 3.5 02:55:30 10° N 02:59:49 26° WNW 03:04:07 10° WSW
Cosmos 1515 Rocket 3.7 02:56:51 10° N 03:01:18 86° E 03:05:45 10° S
